This demonstration page uses our WeatherBlox Daily Observations layout. Learn more.

Left ArrowRight Arrow

Hourly Observations for June 5, 2021

Temp ( °F °C ) Dew Point ( °F °C ) Humidity (%) Winds ( mph kmh ) Pressure ( in mb ) Visibility ( mi km ) Precip ( " mm )
12:56 am 00:56 Clear 70 21.1 56 13.3 61 61 S 12 19 29.80 1009 10 16 0.00 0.00
1:56 am 01:56 Clear 69 20.6 58 14.4 68 68 S 10 17 29.79 1009 10 16 0.00 0.00
2:56 am 02:56 Clear 69 20.6 58 14.4 68 68 SSW 13 20 29.77 1008 10 16 0.00 0.00
3:56 am 03:56 Clear 67 19.4 58 14.4 73 73 SSW 9 15 29.78 1009 10 16 0.00 0.00
4:56 am 04:56 Clear 65 18.3 59 15 81 81 SSW 12 19 29.78 1008 10 16 0.00 0.00
5:56 am 05:56 Clear 64 17.8 58 14.4 81 81 SSW 10 17 29.79 1009 10 16 0.00 0.00
6:56 am 06:56 Sunny 65 18.3 59 15 81 81 SSW 9 15 29.79 1009 10 16 0.00 0.00
7:56 am 07:56 Sunny 70 21.1 60 15.6 71 71 SSW 15 24 29.79 1009 10 16 0.00 0.00
8:56 am 08:56 Sunny 73 22.8 60 15.6 64 64 SSW 15 24 29.79 1009 10 16 0.00 0.00
9:56 am 09:56 Sunny 77 25 60 15.6 56 56 SW 14 22 29.79 1009 10 16 0.00 0.00
10:56 am 10:56 Sunny 81 27.2 61 16.1 51 51 SSW 15 24 29.77 1008 10 16 0.00 0.00
11:56 am 11:56 Sunny 85 29.4 61 16.1 45 45 SSW 20 31 29.76 1008 10 16 0.00 0.00
12:56 pm 12:56 Sunny 86 30 60 15.6 42 42 SSW 21 33 29.76 1008 10 16 0.00 0.00
1:56 pm 13:56 Sunny 87 30.6 60 15.6 40 40 SSE 17 28 29.75 1008 10 16 0.00 0.00
2:56 pm 14:56 Sunny 88 31.1 61 16.1 40 40 S 16 26 29.74 1007 10 16 0.00 0.00
3:56 pm 15:56 Mostly Sunny 87 30.6 61 16.1 42 42 S 18 30 29.73 1007 10 16 0.00 0.00
4:56 pm 16:56 Sunny 87 30.6 59 15 39 39 S 18 30 29.72 1006 10 16 0.00 0.00
5:56 pm 17:56 Sunny 86 30 59 15 40 40 S 22 35 29.71 1006 10 16 0.00 0.00
6:56 pm 18:56 Sunny 85 29.4 58 14.4 40 40 S 20 31 29.70 1006 10 16 0.00 0.00
7:56 pm 19:56 Sunny 83 28.3 59 15 44 44 S 20 31 29.70 1006 10 16 0.00 0.00
8:56 pm 20:56 Sunny 79 26.1 59 15 50 50 S 16 26 29.71 1006 10 16 0.00 0.00
9:56 pm 21:56 Clear 75 23.9 58 14.4 55 55 SSE 13 20 29.72 1007 10 16 0.00 0.00
10:56 pm 22:56 Clear 73 22.8 57 13.9 57 57 S 15 24 29.73 1007 10 16 0.00 0.00
11:56 pm 23:56 Clear 71 21.7 57 13.9 61 61 S 16 26 29.73 1007 10 16 0.00 0.00

Powered by AerisWeather